DeLand, FL

1:03 AM EST on February 18, 2018 (GMT -0500)
De Land Municipal-Taylor

Weather History for KDED - September, 2012

Change the Weather History Date:

Thursday, September 27, 2012

  Actual Average Record
Temperature  
Mean Temperature 80 °F -  
Max Temperature 89 °F 87 °F 91 °F (2017)
Min Temperature 71 °F 67 °F 71 °F (2016)
Cooling Degree Days 15    
Growing Degree Days 30 (Base 50)    
Moisture  
Dew Point 73 °F    
Average Humidity 86    
Maximum Humidity 100    
Minimum Humidity 52    
Precipitation  
Precipitation 0.01 in - - ()
Sea Level Pressure  
Sea Level Pressure 30.10 in    
Wind  
Wind Speed 2 mph ()    
Max Wind Speed 15 mph    
Max Gust Speed 21 mph    
Visibility 7.8 miles    
Events      
Averages and records for this station are not official NWS values.
T = Trace of Precipitation, MM = Missing Value Source: Averaged Metar Reports

Daily Weather History Graph

Daily Weather History Graph

Search for Another Location

Airport or City:

Trip Planner

Search our weather history database for the weather conditions in past years. The results will help you decide how hot, cold, wet, or windy it might be!

Date:

Astronomy

Sep. 27, 2012 Rise Set
Actual Time 7:16 AM EDT 7:15 PM EDT
Civil Twilight 6:52 AM EDT 7:38 PM EDT
Nautical Twilight 6:25 AM EDT 8:06 PM EDT
Astronomical Twilight 5:57 AM EDT 8:33 PM EDT
Moon 5:39 PM EDT (9/27) 4:52 AM EDT (9/27)
Length of Visible Light 12h 45m
Length of Day
11h 58m
Waxing Gibbous, 94% of the Moon is Illuminated
Sep 27
Waxing Gibbous
Sep 29
Full
Oct 8
Last Quarter
Oct 15
New
Oct 21
First Quarter

Hourly Weather History & Observations

Time (EDT) Temp. Heat Index Dew Point Humidity Pressure Visibility Wind Dir Wind Speed Gust Speed Precip Events Conditions
12:15 AM 75.2 °F - 73.4 °F 94% 30.13 in 8.0 mi Calm Calm - N/A   Clear
12:35 AM 73.4 °F - 73.4 °F 100% 30.12 in 8.0 mi Calm Calm - N/A   Clear
12:55 AM 73.4 °F - 71.6 °F 94% 30.12 in 8.0 mi Calm Calm - N/A   Clear
1:15 AM 73.4 °F - 73.4 °F 100% 30.11 in 7.0 mi Calm Calm - N/A   Clear
1:35 AM 73.4 °F - 73.4 °F 100% 30.11 in 7.0 mi Calm Calm - 0.01 in   Clear
1:55 AM 73.4 °F - 73.4 °F 100% 30.11 in 7.0 mi Calm Calm - 0.01 in   Clear
2:15 AM 73.4 °F - 73.4 °F 100% 30.11 in 6.0 mi Calm Calm - N/A   Clear
2:35 AM 73.4 °F - 71.6 °F 94% 30.11 in 7.0 mi Calm Calm - N/A   Clear
3:15 AM 73.4 °F - 71.6 °F 94% 30.10 in 8.0 mi Calm Calm - N/A   Clear
3:35 AM 73.4 °F - 71.6 °F 94% 30.09 in 7.0 mi Calm Calm - N/A   Partly Cloudy
3:55 AM 73.4 °F - 71.6 °F 94% 30.09 in 5.0 mi Calm Calm - N/A   Clear
4:15 AM 73.4 °F - 71.6 °F 94% 30.09 in 8.0 mi Calm Calm - N/A   Clear
4:35 AM 71.6 °F - 71.6 °F 100% 30.09 in 5.0 mi Calm Calm - N/A   Partly Cloudy
4:55 AM 71.6 °F - 71.6 °F 100% 30.09 in 2.5 mi Calm Calm - N/A   Clear
5:15 AM 73.4 °F - 71.6 °F 94% 30.10 in 2.0 mi Calm Calm - N/A   Overcast
5:35 AM 73.4 °F - 71.6 °F 94% 30.11 in 0.2 mi NW 3.5 mph - N/A   Overcast
5:55 AM 71.6 °F - 71.6 °F 100% 30.11 in 0.2 mi Calm Calm - N/A   Overcast
6:15 AM 71.6 °F - 71.6 °F 100% 30.11 in 0.5 mi Calm Calm - N/A   Overcast
6:35 AM 71.6 °F - 71.6 °F 100% 30.11 in 1.8 mi Calm Calm - N/A   Overcast
6:55 AM 71.6 °F - 71.6 °F 100% 30.11 in 2.5 mi Calm Calm - N/A   Mostly Cloudy
7:15 AM 71.6 °F - 71.6 °F 100% 30.12 in 0.5 mi Calm Calm - N/A   Overcast
7:35 AM 71.6 °F - 71.6 °F 100% 30.12 in 1.8 mi Calm Calm - N/A   Mostly Cloudy
7:55 AM 73.4 °F - 71.6 °F 94% 30.13 in 7.0 mi Calm Calm - N/A   Clear
8:35 AM 73.4 °F - 73.4 °F 100% 30.13 in 8.0 mi Calm Calm - N/A   Clear
8:55 AM 75.2 °F - 75.2 °F 100% 30.13 in 9.0 mi Calm Calm - N/A   Clear
9:15 AM 77.0 °F - 75.2 °F 94% 30.14 in 10.0 mi Calm Calm - N/A   Clear
9:35 AM 78.8 °F - 75.2 °F 89% 30.15 in 9.0 mi Calm Calm - N/A   Clear
9:55 AM 80.6 °F 86.2 °F 75.2 °F 84% 30.15 in 9.0 mi North 3.5 mph - N/A   Clear
10:15 AM 80.6 °F 86.2 °F 75.2 °F 84% 30.15 in 10.0 mi North 4.6 mph - N/A   Clear
10:35 AM 82.4 °F 88.2 °F 73.4 °F 74% 30.15 in 10.0 mi Calm Calm - N/A   Partly Cloudy
10:55 AM 84.2 °F 90.9 °F 73.4 °F 70% 30.15 in 10.0 mi Calm Calm - N/A   Clear
11:15 AM 84.2 °F 90.9 °F 73.4 °F 70% 30.15 in 10.0 mi NE 4.6 mph - N/A   Scattered Clouds
11:35 AM 84.2 °F 90.9 °F 73.4 °F 70% 30.15 in 10.0 mi Calm Calm - N/A   Scattered Clouds
12:15 PM 86.0 °F 91.8 °F 71.6 °F 62% 30.13 in 10.0 mi North 8.1 mph - N/A   Clear
12:35 PM 86.0 °F 91.8 °F 71.6 °F 62% 30.13 in 10.0 mi North 3.5 mph - N/A   Mostly Cloudy
12:55 PM 86.0 °F 91.8 °F 71.6 °F 62% 30.12 in 10.0 mi Calm Calm - N/A   Scattered Clouds
1:15 PM 87.8 °F 93.8 °F 71.6 °F 58% 30.10 in 10.0 mi Calm Calm - N/A   Partly Cloudy
1:35 PM 87.8 °F 93.8 °F 71.6 °F 58% 30.10 in 10.0 mi NNE 10.4 mph - N/A   Partly Cloudy
1:55 PM 86.0 °F 93.4 °F 73.4 °F 66% 30.09 in 10.0 mi NE 9.2 mph - N/A   Partly Cloudy
2:15 PM 87.8 °F 93.8 °F 71.6 °F 58% 30.09 in 10.0 mi NE 6.9 mph - N/A   Clear
2:55 PM 87.8 °F 93.8 °F 71.6 °F 58% 30.07 in 10.0 mi North 5.8 mph - N/A   Clear
3:15 PM 89.6 °F 94.7 °F 69.8 °F 52% 30.06 in 10.0 mi ENE 5.8 mph - N/A   Partly Cloudy
3:35 PM 87.8 °F 95.6 °F 73.4 °F 62% 30.06 in 10.0 mi NE 10.4 mph 17.3 mph N/A   Mostly Cloudy
3:55 PM 84.2 °F 92.3 °F 75.2 °F 74% 30.06 in 10.0 mi East 8.1 mph - N/A   Scattered Clouds
4:15 PM 82.4 °F 88.2 °F 73.4 °F 74% 30.07 in 9.0 mi NNW 15.0 mph 20.7 mph N/A   Mostly Cloudy
4:35 PM 77.0 °F - 71.6 °F 83% 30.06 in 2.5 mi NNW 8.1 mph - N/A   Scattered Clouds
4:55 PM 77.0 °F - 71.6 °F 83% 30.06 in 10.0 mi North 5.8 mph - N/A   Partly Cloudy
5:15 PM 78.8 °F - 73.4 °F 83% 30.07 in 10.0 mi NE 5.8 mph - N/A   Clear
5:35 PM 78.8 °F - 73.4 °F 83% 30.07 in 9.0 mi Calm Calm - N/A   Clear
5:55 PM 80.6 °F 86.2 °F 75.2 °F 84% 30.07 in 10.0 mi NE 8.1 mph - N/A   Clear
6:15 PM 80.6 °F 86.2 °F 75.2 °F 84% 30.07 in 9.0 mi NNE 13.8 mph 18.4 mph N/A   Clear
6:35 PM 80.6 °F 85.4 °F 73.4 °F 79% 30.07 in 10.0 mi NE 8.1 mph - N/A   Clear
6:55 PM 80.6 °F 85.4 °F 73.4 °F 79% 30.08 in 10.0 mi NE 8.1 mph - N/A   Clear
7:15 PM 80.6 °F 85.4 °F 73.4 °F 79% 30.09 in 10.0 mi NE 6.9 mph - N/A   Partly Cloudy
7:35 PM 78.8 °F - 73.4 °F 83% 30.09 in 10.0 mi NE 4.6 mph - N/A   Partly Cloudy
7:55 PM 78.8 °F - 73.4 °F 83% 30.09 in 10.0 mi NE 3.5 mph - N/A   Clear
8:15 PM 78.8 °F - 73.4 °F 83% 30.09 in 10.0 mi NE 4.6 mph - N/A   Clear
8:55 PM 77.0 °F - 73.4 °F 89% 30.09 in 10.0 mi Calm Calm - N/A   Clear
9:15 PM 77.0 °F - 73.4 °F 89% 30.09 in 9.0 mi Calm Calm - N/A   Clear
9:35 PM 75.2 °F - 73.4 °F 94% 30.09 in 9.0 mi Calm Calm - N/A   Clear
9:55 PM 75.2 °F - 73.4 °F 94% 30.10 in 9.0 mi Calm Calm - N/A   Clear
10:15 PM 75.2 °F - 73.4 °F 94% 30.10 in 10.0 mi Calm Calm - N/A   Clear
10:35 PM 75.2 °F - 73.4 °F 94% 30.11 in 9.0 mi North 4.6 mph - N/A   Partly Cloudy
10:55 PM 75.2 °F - 73.4 °F 94% 30.11 in 9.0 mi NNW 4.6 mph - N/A   Scattered Clouds
11:15 PM 75.2 °F - 73.4 °F 94% 30.11 in 8.0 mi Calm Calm - N/A   Partly Cloudy
11:35 PM 75.2 °F - 73.4 °F 94% 30.10 in 8.0 mi Calm Calm - N/A   Clear
11:55 PM 75.2 °F - 73.4 °F 94% 30.10 in 9.0 mi Calm Calm - N/A   Clear